Location: Ponte Samoggia
(44.5667°N, 11.1333°E)
Time: 22:02:31
(UTC+00:00)

NOSS 0 Rocket - Pass Details

Date: 26 May 2022
Orbit: 935 x 954 km, 70.0° (Epoch: 29 June)

Event Time Altitude Azimuth Distance (km) Brightness Sun altitude
Exits shadow 00:29:24 36° 236° (SW) 1,457 4.5 -22.0°
Maximum altitude 00:31:53 62° 301° (WNW) 1,070 4.2 -21.9°
Drops below altitude 10° 00:38:05 10° 22° (NNE) 2,689 7.5 -21.5°
Sets 00:40:40 0° 26° (NNE) 3,637 8.6 -21.3°
